This is the latest recevied weather packets stored in our database for station/object WX5RP. If no packets are shown the sender has not sent any weather packets the latest 10 day(s).
| Time | Temp. | Humidity | Pressure | Rain* | Wind** | Luminosity | Snow |
|---|---|---|---|---|---|---|---|
| 1777847717 | 24.44° C | 26% | 1012.5 hPa | 0 mm | - | 306 W/m² | - |
| 1777847117 | 23.89° C | 22% | 1012.8 hPa | 0 mm | - | 990 W/m² | - |
| 1777846517 | 23.33° C | 22% | 1012.7 hPa | 0 mm | - | 268 W/m² | - |
| 1777845917 | 23.33° C | 24% | 1012.9 hPa | 0 mm | - | 220 W/m² | - |
| 1777845317 | 24.44° C | 21% | 1013.5 hPa | 0 mm | - | 831 W/m² | - |
| 1777844717 | 23.33° C | 25% | 1013.5 hPa | 0 mm | - | 985 W/m² | - |
| 1777844117 | 23.33° C | 30% | 1014 hPa | 0 mm | - | 265 W/m² | - |
| 1777843517 | 22.22° C | 32% | 1014.1 hPa | 0 mm | - | 307 W/m² | - |
| 1777842919 | 21.11° C | 36% | 1013.8 hPa | 0 mm | - | 318 W/m² | - |
| 1777842326 | 21.67° C | 33% | 1013.4 hPa | 0 mm | - | 235 W/m² | - |
| 1777841717 | 22.78° C | 30% | 1013.5 hPa | 0 mm | - | 271 W/m² | - |
| 1777841117 | 23.33° C | 29% | 1013.5 hPa | 0 mm | - | 327 W/m² | - |
| 1777840517 | 23.89° C | 25% | 1013.7 hPa | 0 mm | - | 214 W/m² | - |
| 1777839916 | 25° C | 24% | 1014.1 hPa | 0 mm | - | 1049 W/m² | - |
| 1777839317 | 23.89° C | 22% | 1013.8 hPa | 0 mm | - | 1010 W/m² | - |
| 1777838716 | 23.33° C | 27% | 1014.5 hPa | 0 mm | - | 1003 W/m² | - |
| 1777838116 | 22.22° C | 26% | 1014.5 hPa | 0 mm | - | 425 W/m² | - |
| 1777837528 | 23.33° C | 25% | 1015.1 hPa | 0 mm | - | 987 W/m² | - |
| 1777836916 | 22.78° C | 26% | 1015.2 hPa | 0 mm | - | 952 W/m² | - |
| 1777836316 | 22.78° C | 25% | 1015.3 hPa | 0 mm | - | 949 W/m² | - |
| 1777835716 | 23.33° C | 27% | 1015.7 hPa | 0 mm | - | 917 W/m² | - |
| 1777835117 | 22.78° C | 29% | 1014.9 hPa | 0 mm | - | 963 W/m² | - |
| 1777834516 | 22.22° C | 26% | 1015.2 hPa | 0 mm | - | 930 W/m² | - |
| 1777833916 | 21.67° C | 26% | 1015.2 hPa | 0 mm | - | 925 W/m² | - |
| 1777833316 | 21.67° C | 30% | 1015.7 hPa | 0 mm | - | 911 W/m² | - |
* Rain latest hour (hover to see other rain measurements)
** Current wind speed in m/s (hover to see current wind gust speed)